STARLINK-32320, 61638

Orbit data source: Space-Track

STARLINK-32320, 61638 is a payload satellite owned by SpaceX/Seattle (US) in LEO that was launched on Wed, 23 Oct 2024 UTC via an FALCON 9 launch vehicle from the Air Force Eastern Test Range (AFETR). Payload-class satellites include a variety of spacecraft equipped with specific instruments for various scientific and technological missions. These include communications satellites like Starlink; space stations such as the ISS; scientific satellites like the Hubble; Earth observation satellites from companies like Planet Labs, Umbra, and HawkEye 360; GPS; miniature CubeSats for education and research; and military/defense satellites.

Loading next visibility...
Identifier
61638, 2024-191T
Orbit
LEO
Country
Flag of USUS
Related business
Manufacturer
SpaceX/Seattle
Mission
Operational Commercial Communications
Bus & Motor
STARLINK V2M, Unknown motor
Mass
730 kg wet, ~700 kg dry
Launch date (UTC)
2024-10-23 (1 year ago)
Launch vehicle
FALCON 9
Launch site
Air Force Eastern Test Range (AFETR)
Object type
Payload
Rocket body
Debris
Shape & HBR
Box + 2 Pan, 17.7 m
Radar Cross Section
33.884 m², Large (>1 m²)

Expand to show TLE details & history
Last TLE update: 19 hours ago

TLE from 19 hours ago
0 STARLINK-32320
1 61638U 24191T   25340.92071519 -.00001916  00000-0 -60113-4 0  9993
2 61638  43.0047 322.3036 0001226 262.4506  97.6206 15.27587790 63302
Epoch: 2025-12-06T22:05Z
TLE epoch observation values (Epoch: 2025-12-06T22:05:49.792Z)
Latitude
-0.00005°
Longitude
-85.09544°
Altitude
482.913 km
Speed
7.626 km/s
True Right ascension
21h 29m 12s
True Declination
0° 00' 00"
Sunlit
Object was in daylight at epoch
Visualization orbit readout
Latitude
Unknown
Longitude
Unknown
Altitude
Unknown
Speed
Unknown
Apparent Right ascension
Unknown
Apparent Declination
Unknown
Sunlit
N/A
Visualization observer readout
Local Sidereal Time
15:39:51
Azimuth
Unknown
Elevation
Unknown
Doppler factor
Unknown
Orbital elements
Apogee altitude
485.812 km
Perigee altitude
484.129 km
Semi-major axis
6,863.107 km
Eccentricity
0.00012
Inclination
43.0047°
RAAN
322.3036°
Arg. of periapsis
262.4506°
True anomaly
97.63452°
Mean anomaly
97.6206°
Eccentric anomaly
97.62756°
Mean motion
3.81735 °/min
Orbital period
94.31 mins
BSTAR
-0.000060113
Loading maneuver chart data...
Computing Atmospheric mass density...
Loading historical data...
Loading historical data...
Loading historical data...
Loading historical data...
Loading historical data...
Loading historical data...
Loading historical data...

Documentation

Showing up to 5 results
|